Location: Peebles
(55.6412°N, 3.1714°W)
Time: 10:15:11
(UTC+01:00)

Geosat - Pass Details

Date: 26 September 2021
Orbit: 763 x 765 km, 108.0° (Epoch: 20 October)

Event Time Altitude Azimuth Distance (km) Brightness Sun altitude
Rises 20:04:25 0° 37° (NE) 3,245 7.0 -9.8°
Reaches altitude 10° 20:06:52 10° 45° (NE) 2,315 6.2 -10.1°
Maximum altitude 20:11:33 38° 113° (ESE) 1,162 4.5 -10.8°
Drops below altitude 10° 20:16:13 10° 181° (S) 2,300 6.3 -11.4°
Sets 20:18:38 0° 190° (S) 3,222 7.2 -11.7°
